TimeCET,TemperatureF,Dew PointF,Humidity,Sea Level PressureIn,VisibilityMPH,Wind Direction,Wind SpeedMPH,Gust SpeedMPH,PrecipitationIn,Events,Conditions,WindDirDegrees,DateUTC
12:00 AM,33.8,33.8,100,30.09,5.6,Calm,Calm,-,N/A,,Scattered Clouds,0,2012-10-28 23:00:00
12:30 AM,32.0,32.0,100,30.09,5.0,Calm,Calm,-,N/A,,Partly Cloudy,0,2012-10-28 23:30:00
1:00 AM,32.0,32.0,100,30.09,5.0,NE,1.2,-,N/A,,Partly Cloudy,40,2012-10-29 00:00:00
1:30 AM,32.0,32.0,100,30.09,4.3,East,1.2,-,N/A,,Partly Cloudy,80,2012-10-29 00:30:00
2:00 AM,30.2,30.2,100,30.06,5.0,Calm,Calm,-,N/A,,Partly Cloudy,0,2012-10-29 01:00:00
2:30 AM,30.2,30.2,100,30.06,3.7,Variable,2.3,-,N/A,,Partly Cloudy,0,2012-10-29 01:30:00
3:30 AM,32.0,32.0,100,30.06,0.2,NE,3.5,-,N/A,Fog,Light Freezing Fog,50,2012-10-29 02:30:00
4:00 AM,32.0,32.0,100,30.06,0.2,NNE,3.5,-,N/A,Fog,Light Freezing Fog,20,2012-10-29 03:00:00
4:30 AM,32.0,32.0,100,30.04,0.2,ENE,1.2,-,N/A,Fog,Light Freezing Fog,70,2012-10-29 03:30:00
5:00 AM,32.0,32.0,100,30.04,0.4,Calm,Calm,-,N/A,Fog,Fog,0,2012-10-29 04:00:00
5:30 AM,32.0,32.0,100,30.04,0.3,Calm,Calm,-,N/A,Fog,Fog,0,2012-10-29 04:30:00
6:00 AM,32.0,32.0,100,30.04,0.2,Calm,Calm,-,N/A,Fog,Fog,0,2012-10-29 05:00:00
6:30 AM,32.0,32.0,100,30.01,0.3,Variable,1.2,-,N/A,Fog,Fog,0,2012-10-29 05:30:00
7:00 AM,32.0,32.0,100,30.01,0.3,Calm,Calm,-,N/A,Fog,Fog,0,2012-10-29 06:00:00
7:30 AM,32.0,32.0,100,30.01,0.3,Variable,1.2,-,N/A,Fog,Fog,0,2012-10-29 06:30:00
8:00 AM,32.0,32.0,100,30.01,0.3,Calm,Calm,-,N/A,Fog,Light Freezing Fog,0,2012-10-29 07:00:00
8:30 AM,32.0,32.0,100,30.01,0.3,Variable,1.2,-,N/A,Fog,Fog,0,2012-10-29 07:30:00
9:00 AM,33.8,33.8,100,30.01,0.3,Variable,1.2,-,N/A,Fog,Fog,0,2012-10-29 08:00:00
9:30 AM,33.8,33.8,100,30.01,0.4,Variable,1.2,-,N/A,Fog,Fog,0,2012-10-29 08:30:00
9:34 AM,33.8,33.8,100,30.01,0.6,Variable,1.2,-,N/A,Fog,Fog,0,2012-10-29 08:34:00
10:00 AM,33.8,33.8,100,30.01,0.8,Variable,1.2,-,N/A,,Overcast,0,2012-10-29 09:00:00
10:05 AM,33.8,33.8,100,29.98,1.2,Variable,1.2,-,N/A,,Overcast,0,2012-10-29 09:05:00
10:15 AM,35.6,35.6,100,29.98,2.2,Variable,1.2,-,N/A,,Mostly Cloudy,0,2012-10-29 09:15:00
10:30 AM,35.6,35.6,100,29.98,3.1,South,3.5,-,N/A,,Mostly Cloudy,190,2012-10-29 09:30:00
11:00 AM,39.2,39.2,100,29.98,5.6,SSW,6.9,-,N/A,,Partly Cloudy,200,2012-10-29 10:00:00
11:30 AM,41.0,37.4,87,29.98,6.2,SSW,5.8,-,N/A,,Partly Cloudy,200,2012-10-29 10:30:00
12:00 PM,42.8,37.4,81,29.95,6.2,South,5.8,-,N/A,,Partly Cloudy,190,2012-10-29 11:00:00
12:30 PM,44.6,39.2,81,29.95,6.2,South,3.5,-,N/A,,Partly Cloudy,170,2012-10-29 11:30:00
1:00 PM,48.2,37.4,66,29.92,6.2,SSW,9.2,-,N/A,,Partly Cloudy,210,2012-10-29 12:00:00
1:30 PM,50.0,39.2,66,29.92,6.2,SW,8.1,-,N/A,,Partly Cloudy,220,2012-10-29 12:30:00
2:00 PM,51.8,41.0,67,29.89,6.2,SW,8.1,-,N/A,,Partly Cloudy,220,2012-10-29 13:00:00
2:30 PM,51.8,41.0,67,29.89,6.2,SSW,8.1,-,N/A,,Partly Cloudy,210,2012-10-29 13:30:00
3:00 PM,53.6,39.2,58,29.86,6.2,SSW,4.6,-,N/A,,Partly Cloudy,210,2012-10-29 14:00:00
3:30 PM,53.6,37.4,54,29.86,-9999.0,Variable,1.2,-,N/A,,Clear,0,2012-10-29 14:30:00
4:00 PM,53.6,39.2,58,29.86,-9999.0,Variable,1.2,-,N/A,,Clear,0,2012-10-29 15:00:00
4:30 PM,55.4,39.2,54,29.86,-9999.0,Variable,1.2,-,N/A,,Clear,0,2012-10-29 15:30:00
5:00 PM,53.6,37.4,54,29.83,-9999.0,Calm,Calm,-,N/A,,Clear,0,2012-10-29 16:00:00
5:30 PM,53.6,39.2,58,29.83,-9999.0,South,2.3,-,N/A,,Clear,170,2012-10-29 16:30:00
6:00 PM,50.0,39.2,66,29.83,-9999.0,SSE,2.3,-,N/A,,Clear,150,2012-10-29 17:00:00
6:30 PM,48.2,37.4,66,29.83,-9999.0,South,2.3,-,N/A,,Clear,170,2012-10-29 17:30:00
7:00 PM,44.6,39.2,81,29.83,-9999.0,Calm,Calm,-,N/A,,Clear,0,2012-10-29 18:00:00
7:30 PM,42.8,39.2,87,29.83,-9999.0,Calm,Calm,-,N/A,,Clear,0,2012-10-29 18:30:00
8:00 PM,41.0,39.2,93,29.83,-9999.0,Variable,1.2,-,N/A,,Clear,0,2012-10-29 19:00:00
8:30 PM,39.2,37.4,93,29.83,-9999.0,Calm,Calm,-,N/A,,Clear,0,2012-10-29 19:30:00
9:30 PM,41.0,37.4,87,29.83,-9999.0,North,4.6,-,N/A,,Clear,10,2012-10-29 20:30:00
10:00 PM,39.2,37.4,93,29.83,-9999.0,Variable,2.3,-,N/A,,Clear,0,2012-10-29 21:00:00
10:30 PM,37.4,35.6,93,29.83,-9999.0,Calm,Calm,-,N/A,,Clear,0,2012-10-29 21:30:00
11:00 PM,35.6,33.8,93,29.83,-9999.0,West,1.2,-,N/A,,Clear,280,2012-10-29 22:00:00
11:30 PM,35.6,35.6,100,29.80,-9999.0,Calm,Calm,-,N/A,,Clear,0,2012-10-29 22:30:00